Location: Cabañas
(40.5620°N, 4.7643°W)
Time: 06:25:50
(UTC+00:00)

Daily predictions for brighter satellites

Satellite Brightness Start Highest point End
(mag) Time Altitude Azimuth Time Altitude Azimuth Time Altitude Azimuth
CSL-04 Rocket 4.2 20:17:41 10° S 20:23:08 64° WSW 20:28:40 10° NNW
Resurs 1-3 3.6 20:20:14 10° SSE 20:24:38 90° ENE 20:29:02 10° NNW
USA 276 2.3 20:22:56 10° SW 20:25:48 44° SE 20:28:41 10° ENE
Spot 2 4.5 20:23:27 10° S 20:28:01 78° WSW 20:32:53 10° NNW
ARGOS Delta rocket 3.8 20:24:37 10° N 20:29:20 85° WNW 20:33:48 10° SSW
ATLAS 2AS CENTAUR R/B 4.0 20:24:50 10° NNW 20:30:59 30° NE 20:36:47 10° E
Meteor 1-24 Rocket 4.5 20:26:54 10° SSE 20:31:26 30° E 20:36:01 10° NNE
MetOp-A 3.9 20:27:37 10° S 20:31:48 70° WSW 20:36:22 10° NNW
Cosmos 1371 Rocket 4.4 20:28:26 10° S 20:33:19 42° ESE 20:38:16 10° NNE
Lacrosse 5 3.7 20:30:52 10° NNW 20:34:56 23° NNE 20:38:59 10° E
X-37B 0.2 20:33:08 10° WSW 20:35:55 84° SSE 20:38:44 10° ENE
Cosmos 1745 Rocket 4.0 20:31:02 10° N 20:37:11 69° E 20:43:19 10° SSE
NOSS 3-4 (A) 4.0 20:30:12 10° NW 20:37:22 90° SW 20:45:27 10° SSE
NOSS 3-4 (C) 4.0 20:30:18 10° NW 20:37:28 90° ENE 20:45:30 10° SSE
DELTA 2 R/B (1) 4.0 20:36:04 10° W 20:41:27 50° SSW 20:46:38 11° SE
Terra 3.9 20:39:31 10° E 20:41:36 13° ENE 20:43:40 10° NE
GEOS 3 Rocket 3.9 20:39:31 10° SSE 20:44:34 64° WSW 20:49:39 10° NW
Resurs 01 Rocket 1.6 20:43:12 10° SSE 20:47:37 76° ENE 20:52:04 10° N
H-2A R/B 3.9 20:46:05 10° SSW 20:49:32 32° W 20:53:00 10° NNW
Cosmos 1300 2.8 20:47:08 10° N 20:50:56 76° W 20:54:41 10° S
Cosmos 1624 Rocket 4.0 20:48:25 10° S 20:53:34 60° ESE 20:58:42 10° NNE
Meteor 2-12 Rocket 4.4 20:47:39 10° N 20:53:45 76° E 20:59:50 10° SSE
CZ-4B R/B 0.9 20:55:10 10° NNE 20:58:03 87° E 21:00:55 10° SSW
Cosmos 2251 Rocket 4.2 20:52:57 10° NNW 20:58:11 56° WSW 21:03:24 10° S
Lacrosse 5 rocket 2.4 20:55:03 10° NNW 20:58:36 34° NE 21:01:56 12° ESE
Cosmos 1190 Rocket 4.3 20:53:27 10° N 20:58:41 57° ENE 21:03:04 15° SE
Cosmos 407 Rocket 3.5 20:56:30 10° NNW 21:01:43 90° SW 21:06:25 12° SSE
Cosmos 1271 Rocket 4.1 20:58:54 10° NNE 21:02:13 25° ENE 21:04:25 16° ESE
SPOT 3 Rocket 3.9 20:59:34 14° SE 21:03:51 49° ENE 21:08:52 10° N
ERS-1 Rocket 4.1 21:03:41 14° ESE 21:07:06 29° ENE 21:11:25 10° N
Cosmos 1140 Rocket 3.8 21:08:48 10° NNW 21:13:57 65° WSW 21:18:39 12° S
Cosmos 2056 Rocket 3.6 21:08:52 10° SSW 21:14:14 88° WNW 21:19:41 10° NNE
Cosmos 1025 Rocket 2.9 21:10:38 10° S 21:14:53 89° ESE 21:19:12 10° N
Cosmos 2315 Rocket 4.0 21:10:56 10° S 21:17:17 87° E 21:23:37 10° N
SL-24 R/B 4.1 21:14:46 15° SSE 21:18:16 88° WSW 21:22:49 10° NNW
ARIANE 5 R/B 4.3 21:18:10 15° ESE 21:20:24 21° ENE 21:23:41 10° NNE
Cosmos 1455 Rocket 3.1 21:16:47 10° N 21:21:08 80° W 21:24:39 15° S
Cosmos 1420 Rocket 4.0 21:16:53 10° SSW 21:22:07 87° ESE 21:27:25 10° NNE
Cosmos 676 Rocket 4.2 21:20:56 10° NNW 21:26:12 59° ENE 21:29:29 22° SE
Cosmos 1709 Rocket 4.1 21:20:09 10° N 21:26:22 80° W 21:32:13 12° S
BREEZE-M DEB (TANK) 3.7 21:26:44 10° W 21:28:40 23° SSW 21:29:39 20° S
Atlas Centaur 2 3.4 21:28:32 10° SW 21:31:06 14° SSW 21:31:58 14° S
USA 245 3.6 21:28:10 19° SSE 21:31:38 86° ENE 21:35:40 10° NNW
Cosmos 1455 2.2 21:29:49 10° N 21:33:36 61° E 21:35:17 30° SSE
SPOT 1/Viking Rocket 4.5 21:30:10 10° S 21:35:03 44° W 21:39:59 10° NNW
Cosmos 2074 Rocket 4.5 21:30:40 10° N 21:36:40 45° ENE 21:40:09 24° SE
Meteor 2-5 Rocket 4.2 21:31:23 10° SSW 21:36:50 59° WNW 21:42:19 10° N
USA 32 4.0 21:32:16 13° S 21:37:00 89° W 21:42:15 10° N
Ariane Rocket 3.7 21:33:09 12° S 21:37:45 50° W 21:42:43 10° NNW
TSX-5 4.2 21:38:22 21° S 21:41:03 56° ESE 21:46:11 10° NNE
USA 102 3.0 21:44:14 69° E 21:44:38 75° NE 21:53:47 10° NNW
Cosmos 1954 Rocket 4.0 21:39:22 10° NNW 21:44:39 86° WSW 21:47:39 26° SSE
Cosmos 1536 Rocket 3.6 21:43:14 28° SSE 21:45:18 60° E 21:49:35 10° NNE
NOSS 2-1 (C) 4.4 21:43:05 10° NNW 21:47:49 63° NE 21:51:27 26° SE
USA 267 3.2 21:41:29 10° NE 21:47:59 65° SE 21:54:28 10° SW
SPOT 5 2.6 21:46:23 29° SSE 21:48:38 82° ENE 21:53:00 10° N
Tiangong 0.9 21:46:42 10° W 21:49:53 89° S 21:50:36 50° ESE
Nadezhda 1 Rocket 4.5 21:47:09 26° SE 21:49:56 40° E 21:55:33 10° NNE
Cosmos 2228 3.9 21:47:15 10° NNE 21:51:04 32° ENE 21:52:05 28° ESE
Cosmos 1703 3.4 21:51:22 40° SE 21:52:18 51° E 21:56:04 10° NNE
Cosmos 1980 Rocket 4.4 21:49:42 10° NNE 21:52:46 15° NE 21:55:50 10° E
Cosmos 1697 Rocket 4.1 21:51:08 10° N 21:55:52 27° NE 21:58:44 18° E
NOSS 2-1 (D) 4.2 21:53:20 10° NNW 21:58:10 75° NE 22:01:33 29° SE
Cosmos 2154 Rocket 4.4 21:55:29 10° N 22:01:30 49° ENE 22:04:14 30° SE
USA 276 4.3 21:59:00 10° W 22:01:36 26° NNW 22:04:12 10° NE
Cosmos 489 Rocket 4.5 21:58:01 10° NNW 22:04:22 86° ENE 22:07:38 31° SSE
Cosmos 1656 3.7 22:00:10 10° NNW 22:05:37 65° ENE 22:07:55 35° SE
Cosmos 1331 Rocket 4.3 22:04:06 35° SSE 22:05:49 47° ESE 22:10:54 10° NNE
Spot 2 Rocket 3.8 22:05:55 27° S 22:08:36 63° WSW 22:13:41 10° NNW
X-37B 2.1 22:09:00 10° WNW 22:11:35 32° N 22:12:57 20° NE
Meteor 1-21 Rocket 4.2 22:10:00 35° SSE 22:12:16 62° E 22:17:51 10° NNE
Cosmos 1452 Rocket 3.6 22:11:55 18° SSW 22:15:48 79° WNW 22:21:06 10° NNE
Lacrosse 5 1.8 22:13:21 10° NW 22:18:29 87° SW 22:20:08 44° SE
Terra 1.9 22:16:55 38° S 22:18:42 73° WSW 22:23:29 10° NNW
Cosmos 1833 Rocket 2.6 22:17:42 31° S 22:20:24 70° ESE 22:26:00 10° NNE
USA 234 4.4 22:14:35 10° E 22:20:31 38° NNE 22:26:28 10° NW
Cosmos 1726 Rocket 4.4 22:17:01 10° NNE 22:20:57 33° ENE 22:21:23 32° E
SAR-Lupe-4 4.2 22:18:01 10° NNE 22:21:00 42° ENE 22:21:00 42° ENE
ATLAS 2AS CENTAUR R/B 2.8 22:15:32 10° NW 22:22:27 66° WSW 22:25:25 34° S
Cosmos 1110 Rocket 3.9 22:25:42 35° SSW 22:27:58 84° ESE 22:33:17 10° NNE
Helios 1A Rocket 4.2 22:27:38 26° SW 22:29:00 33° W 22:32:44 10° NNW
Cosmos 2184 Rocket 4.2 22:27:33 10° NNW 22:33:41 68° W 22:36:36 32° SSW
Lacrosse 5 rocket 2.5 22:34:05 10° WNW 22:37:26 29° WSW 22:37:26 29° WSW
SAR-Lupe-1 4.0 22:34:02 10° NNE 22:37:27 81° NNE 22:37:27 81° NNE
Cosmos 967 Rocket 4.4 22:34:41 27° SSW 22:38:23 77° ESE 22:44:51 10° NNE
Cosmos 2082 Rocket 2.6 22:42:48 42° ESE 22:43:20 43° ESE 22:48:42 10° NE
ERS-1 Rocket 4.3 22:43:40 23° SW 22:45:46 32° W 22:50:16 10° NNW
RESURS DK-1 2.2 22:44:44 10° NNW 22:48:53 89° ENE 22:48:58 87° SE
Meteor 2-1 Rocket 4.1 22:43:31 10° N 22:49:02 88° W 22:50:28 52° S
Cosmos 2341 Rocket 4.2 22:46:09 10° N 22:52:22 57° E 22:54:07 43° SE
Cosmos 1892 Rocket 3.4 22:53:33 76° SE 22:53:44 78° E 22:58:09 10° N
Cosmos 2058 Rocket 3.6 22:50:46 10° N 22:55:01 46° ENE 22:55:04 46° E
ARIANE 5 R/B 3.6 22:55:42 33° SW 22:56:35 37° W 23:00:44 10° NNW
Cosmos 1825 4.0 22:58:50 21° ENE 22:58:50 21° ENE 23:00:46 10° NNE
Cosmos 192 4.2 23:00:40 69° S 23:01:13 83° ESE 23:06:09 10° NNE
Cosmos 968 Rocket 3.8 23:01:26 10° N 23:06:32 52° ENE 23:07:22 47° E
SL-8 R/B 4.3 23:04:57 10° NW 23:09:40 53° NNE 23:11:22 35° E
GP-B 3.0 23:06:46 10° N 23:11:12 83° W 23:11:18 82° WSW
Meteor 1-27 4.5 23:14:24 10° N 23:19:50 52° ENE 23:20:39 48° ESE
ASTEX 1 3.9 23:16:21 10° N 23:21:13 54° W 23:22:15 45° WSW
Cosmos 2181 Rocket 3.9 23:20:11 57° SSE 23:21:28 77° E 23:27:40 10° N
COSMOS 2406 3.5 23:19:53 37° SW 23:22:09 64° WNW 23:27:53 10° NNE
ADEOS Rocket 3.8 23:20:28 37° ESE 23:23:01 54° ENE 23:30:21 10° N
Okean 1-7 Rocket 3.8 23:27:28 64° ENE 23:27:28 64° ENE 23:31:30 10° NNE
Cosmos 2369 3.6 23:23:26 10° NNW 23:29:12 84° ENE 23:30:04 65° SE
Cosmos 1892 3.5 23:30:48 48° NW 23:30:48 48° NW 23:33:49 10° N
SL-16 R/B 4.1 23:25:56 10° N 23:30:17 22° NE 23:33:07 15° E
USA 267 4.4 23:24:42 10° NE 23:30:46 42° NNW 23:36:50 10° W
Cosmos 1980 Rocket 2.0 23:31:54 10° NNW 23:37:39 86° ENE 23:38:21 70° SSE
SJ 16-02 3.7 23:35:37 10° NNE 23:38:02 14° ENE 23:39:13 13° ENE
Cosmos 2084 Rocket 3.9 23:35:53 10° NNW 23:39:10 54° N 23:39:10 54° N
Cosmos 1697 Rocket 3.2 23:34:41 10° NW 23:39:59 44° WSW 23:40:27 43° WSW
Cosmos 1821 Rocket 4.4 23:38:37 10° N 23:44:39 48° ENE 23:45:54 43° ESE
Cosmos 1992 Rocket 3.8 23:48:17 83° SSE 23:48:27 85° ESE 23:53:43 10° NNE
In-Cosmos 22 Rocket 4.3 23:48:12 55° SW 23:49:08 65° W 23:54:39 10° N
